Regional Weather Roundup
Issued by NWS

Home | Current Version | Previous Version | Graphics & Text | Print | Product List | Glossary Off
Versions: 1 2 3 4 5 6 7 8 9 10 11 12 13 14 15 16 17 18 19 20 21 22 23 24 25 26 27 28 29 30 31 32 33 34 35 36 37 38 39 40 41 42 43 44 45 46 47 48 49 50

000
ASUS43 KDMX 180606
RWRIA

WEATHER ROUNDUP FOR IOWA
NATIONAL WEATHER SERVICE DES MOINES IA
1200 AM CST THU JAN 18 2018

NOTE: "FAIR" INDICATES FEW OR NO CLOUDS BELOW 12,000 FEET WITH NO
SIGNIFICANT WEATHER AND/OR OBSTRUCTIONS TO VISIBILITY.

* - THESE STATIONS ARE NOT NWS STATIONS...THUS NOT UNDER NWS
QUALITY CONTROL.  THEY ALSO DO NOT REPORT WEATHER SUCH
AS PRECIPITATION OR FOG.

IAZ001>003-012>014-020>022-031>034-043>046-180700-
   NORTHWEST IOWA

CITY           SKY/WX    TMP DP  RH WIND       PRES   REMARKS
CARROLL *      CLOUDY    19  14  79 SW25G32   30.18F WCI   2
CHEROKEE *     CLOUDY    19  14  82 S8        30.16F WCI   9
DENISON *      CLOUDY    19  12  73 SW12      30.24S WCI   7
LE MARS *      CLOUDY    21  16  79 S12       30.17S WCI   9
ORANGE CITY *  CLOUDY    21  18  86 S8        30.14F WCI  12
SHELDON *      CLOUDY    21  16  79 SW14      30.11F WCI   8
SIOUX CITY     CLOUDY    16  11  80 SE7       30.19F WCI   6
6HR MIN TEMP:  16; 6HR MAX TEMP:  29;

SPENCER        CLOUDY    23  15  71 SW17G25   30.12F WCI   9
6HR MIN TEMP:  22; 6HR MAX TEMP:  27;

STORM LAKE *   CLOUDY    19  14  79 SW14G20   30.15F WCI   6
$$

IAZ055>058-069>071-079>083-090>094-180700-
   SOUTHWEST IOWA

CITY           SKY/WX    TMP DP  RH WIND       PRES   REMARKS
ATLANTIC *     CLOUDY    18  12  79 SW12      30.27S WCI   5
AUDUBON *      CLOUDY    19  12  73 SW9       30.23F WCI   9
CLARINDA *     CLOUDY    14  12  92 S6          N/A  WCI   5
COUNCIL BLFS * CLOUDY    19  14  79 SW12      30.26F WCI   7
CRESTON *      CLOUDY    18  12  79 SW14      30.28F WCI   4
HARLAN  *      CLOUDY    18  12  79 SW9       30.29F WCI   6
LAMONI         CLOUDY    18  10  71 SW15      30.30F WCI   4
6HR MIN TEMP:  17; 6HR MAX TEMP:  20;

RED OAK *      CLOUDY    18  12  79 S7        30.30F WCI   8
SHENANDOAH *   CLOUDY    19  14  79 SW10      30.32F WCI   8
$$

IAZ047>049-059>061-072>074-084-180700-
   CENTRAL IOWA

CITY           SKY/WX    TMP DP  RH WIND       PRES   REMARKS
AMES           CLOUDY    18  12  77 SW8       30.22F WCI   8
6HR MIN TEMP:  18; 6HR MAX TEMP:  21;

ANKENY *       CLOUDY    21  12  68 SW14      30.26F WCI   8
BOONE *        CLOUDY    21  12  68 SW17G26   30.18F WCI   7
CHARITON *     CLOUDY    19  12  73 SW14G22   30.28F WCI   6
DES MOINES     CLOUDY    21  11  65 SW13      30.25F WCI   9
6HR MIN TEMP:  20; 6HR MAX TEMP:  22;

GRINNELL*      CLOUDY    18  11  74 SW14      30.24F WCI   4
KNOXVILLE *    CLOUDY    19   9  63 SW14      30.25F WCI   6
MARSHALLTOWN   CLOUDY    19  11  70 SW20      30.20F WCI   3
6HR MIN TEMP:  19; 6HR MAX TEMP:  21;

NEWTON *       CLOUDY    18  10  73 SW13      30.24F WCI   4
PELLA *        CLOUDY    21  11  66 SW12G21   30.27F WCI   9
PERRY *          N/A     21  12  68 SW17      30.22F WCI   6
$$

IAZ004>006-015-016-023>025-035-036-180700-
   NORTH CENTRAL IOWA

CITY           SKY/WX    TMP DP  RH WIND       PRES   REMARKS
ALGONA *       CLOUDY    19  21 100 SW15      30.11F WCI   5
CLARION *      CLOUDY    18  12  79 SW10      30.17F WCI   6
ESTHERVILLE    CLOUDY    21  16  81 W12       30.10F WCI   9
6HR MIN TEMP:  21; 6HR MAX TEMP:  26;

FORT DODGE *   CLOUDY    17  11  77 SW9       30.18F WCI   6
MASON CITY     CLOUDY    19  11  70 SW20G28   30.12F WCI   3
6HR MIN TEMP:  18; 6HR MAX TEMP:  21;

FOREST CITY *    N/A     19  14  79 SW10      30.11F WCI   8
WEBSTER CITY * CLOUDY    19  10  68 SW12      30.17F WCI   7
IOWA FALLS *     N/A     19  13  74 SW13      30.20F WCI   7
$$

IAZ007>011-017>019-026>030-037>042-050>054-066-180700-
   NORTHEAST IOWA

CITY           SKY/WX    TMP DP  RH WIND       PRES   REMARKS
CEDAR RAPIDS     N/A     19  10  68 SW13      30.22F WCI   6
6HR MIN TEMP:  19; 6HR MAX TEMP:  21;

CHARLES CITY *   N/A     19  12  73 SW15      30.14F WCI   5
CLINTON *        N/A     17  11  77 SW16      30.24F WCI   2
DECORAH *        N/A     19  12  73 W9G16     30.11F WCI   9
DUBUQUE          N/A     17   8  67 SW20      30.16S WCI   1
6HR MIN TEMP:  17; 6HR MAX TEMP:  18;

MONTICELLO *     N/A     19   9  63 W14       30.22S WCI   6
OELWEIN *        N/A     18  12  79 SW16      30.17F WCI   3
WATERLOO         N/A     18   9  68 W10       30.20F WCI   6
6HR MIN TEMP:  17; 6HR MAX TEMP:  20;

$$

IAZ064-065-067-068-078-180700-
   EAST CENTRAL IOWA

CITY           SKY/WX    TMP DP  RH WIND       PRES   REMARKS
DAVENPORT        N/A     19   9  65 SW15      30.27F WCI   5
6HR MIN TEMP:  19; 6HR MAX TEMP:  20;

IOWA CITY        N/A     20   8  60 SW9       30.28F WCI   9
6HR MIN TEMP:  20; 6HR MAX TEMP:  21;

MT. PLEASANT * CLOUDY    18  10  73 SW16      30.30F WCI   3
MUSCATINE *      N/A     19  10  68 SW10      30.30F WCI   8
QUAD CITIES      N/A     19  11  70 W15       30.27F WCI   5
6HR MIN TEMP:  18; 6HR MAX TEMP:  19;

$$

IAZ062-063-075>077-085>089-095>099-180700-
   SOUTHEAST IOWA

CITY           SKY/WX    TMP DP  RH WIND       PRES   REMARKS
BURLINGTON     CLOUDY    17   8  67 SW15      30.31F WCI   2
6HR MIN TEMP:  17; 6HR MAX TEMP:  18;

FAIRFIELD *    CLOUDY    19   9  63 SW17      30.28F WCI   4
FORT MADISON * CLEAR     18  10  73 SW16      30.32F WCI   3
KEOKUK *       CLOUDY    18  10  73 SW16G23   30.33F WCI   3
OSKALOOSA *      N/A     19  11  72 SW14G21   30.28F WCI   5
OTTUMWA        CLOUDY    20   9  62 SW21G28   30.28F WCI   4
6HR MIN TEMP:  19; 6HR MAX TEMP:  21;

WASHINGTON *   CLOUDY    19  12  73 SW17      30.29S WCI   4
$$

ABBREVIATIONS USED IN REMARKS
   TC - TEMPERATURES IN CELSIUS
  WCI - WIND CHILL INDEX
   HX - HEAT INDEX
  VSB - VISIBILITY
$$




USA.gov is the U.S. government's official web portal to all federal, state and local government web resources and services.